This demonstration page uses our WeatherBlox Daily Observations layout. Learn more.

Left ArrowRight Arrow

Hourly Observations for November 3, 2015

Temp ( °F °C ) Dew Point ( °F °C ) Humidity (%) Winds ( mph kmh ) Pressure ( in mb ) Visibility ( mi km ) Precip ( " mm )
12:53 am 00:53 Clear 57 13.9 47 8.3 69 69 SE 10 17 29.81 1010 10 16 0.00 0.00
1:53 am 01:53 Clear 56 13.3 47 8.3 72 72 SE 9 15 29.81 1009 10 16 0.00 0.00
2:53 am 02:53 Clear 54 12.2 47 8.3 77 77 SE 8 13 29.80 1009 10 16 0.00 0.00
3:53 am 03:53 Clear 53 11.7 46 7.8 77 77 SE 7 11 29.80 1009 10 16 0.00 0.00
4:53 am 04:53 Clear 51 10.6 46 7.8 83 83 E 3 6 29.79 1009 10 16 0.00 0.00
5:53 am 05:53 Clear 50 10 46 7.8 86 86 ESE 5 7 29.82 1010 10 16 0.00 0.00
6:53 am 06:53 Clear 45 7.2 43 6.1 93 93 NE 6 9 29.85 1011 10 16 0.00 0.00
7:53 am 07:53 Sunny 50 10 46 7.8 86 86 E 3 6 29.86 1011 10 16 0.00 0.00
8:53 am 08:53 Sunny 58 14.4 48 8.9 70 70 SE 9 15 29.87 1012 10 16 0.00 0.00
9:53 am 09:53 Sunny 65 18.3 48 8.9 54 54 SSE 9 15 29.87 1012 10 16 0.00 0.00
10:53 am 10:53 Sunny 70 21.1 48 8.9 46 46 SE 8 13 29.86 1011 10 16 0.00 0.00
11:53 am 11:53 Sunny 74 23.3 47 8.3 38 38 SSE 8 13 29.84 1011 10 16 0.00 0.00
12:53 pm 12:53 Sunny 77 25 45 7.2 32 32 S 7 11 29.81 1010 10 16 0.00 0.00
1:53 pm 13:53 Sunny 80 26.7 45 7.2 29 29 SSE 12 19 29.78 1009 10 16 0.00 0.00
2:53 pm 14:53 Sunny 81 27.2 44 6.7 27 27 ESE 7 11 29.76 1008 10 16 0.00 0.00
3:53 pm 15:53 Sunny 83 28.3 42 5.6 24 24 SE 9 15 29.75 1007 10 16 0.00 0.00
4:53 pm 16:53 Sunny 81 27.2 42 5.6 25 25 SE 15 24 29.74 1007 10 16 0.00 0.00
5:53 pm 17:53 Sunny 76 24.4 46 7.8 35 35 SE 15 24 29.76 1008 10 16 0.00 0.00
6:53 pm 18:53 Clear 71 21.7 47 8.3 42 42 SE 12 19 29.79 1009 10 16 0.00 0.00
7:53 pm 19:53 Clear 68 20 49 9.4 51 51 SE 14 22 29.81 1009 10 16 0.00 0.00
8:53 pm 20:53 Clear 66 18.9 54 12.2 65 65 SE 14 22 29.81 1010 10 16 0.00 0.00
9:53 pm 21:53 Clear 65 18.3 58 14.4 78 78 SE 13 20 29.82 1010 10 16 0.00 0.00
10:53 pm 22:53 Clear 63 17.2 59 15 87 87 SSE 10 17 29.82 1010 10 16 0.00 0.00
11:53 pm 23:53 Clear 62 16.7 58 14.4 86 86 SE 10 17 29.81 1010 10 16 0.00 0.00

Powered by AerisWeather